DW4393 Weather Reports


Display with metric or nautical units.
time (UTC)temp
F
wind
direction
speed
MPH
gust
MPH
rain 1hr
in
rain 24hr
in
rain mn
in
humidity
%
barometer
mb
20260903221303 88 247 0.0 0.0 0.00 0.00 0.00 66 1013.8
20260903220803 88 247 0.0 0.0 0.00 0.00 0.00 67 1013.7
20260903220303 89 247 0.0 0.0 0.00 0.00 0.00 69 1013.7
20260903214803 90 247 0.0 0.0 0.00 0.00 0.00 64 1013.6
20260903214304 90 247 0.0 0.0 0.00 0.00 0.00 60 1013.5
20260903213803 90 247 0.0 0.0 0.00 0.00 0.00 62 1013.5
20260903213303 90 247 0.0 0.0 0.00 0.00 0.00 66 1013.6
20260903211803 89 257 0.0 0.0 0.00 0.00 0.00 70 1013.5
20260903211303 89 257 0.0 0.0 0.00 0.00 0.00 71 1013.6
20260903210804 88 257 0.0 0.0 0.00 0.00 0.00 71 1013.7
20260903210304 88 257 0.0 0.0 0.00 0.00 0.00 71 1013.7
20260903204303 89 257 0.0 0.0 0.00 0.00 0.00 67 1013.9
20260903203303 90 257 0.0 0.0 0.00 0.00 0.00 65 1014.0
20260903201803 91 257 0.0 0.0 0.00 0.00 0.00 62 1014.2
20260903200803 92 257 0.0 0.0 0.00 0.00 0.00 61 1014.3
20260903200303 92 257 0.0 0.0 0.00 0.00 0.00 58 1014.3
20260903194803 94 201 0.0 0.0 0.00 0.00 0.00 53 1014.6
20260903194303 95 201 0.0 0.0 0.00 0.00 0.00 51 1014.6
20260903193803 96 201 0.0 0.0 0.00 0.00 0.00 49 1014.7
20260903193303 97 239 0.0 0.0 0.00 0.00 0.00 47 1014.8
20260903191803 97 155 0.0 0.0 0.00 0.00 0.00 47 1015.0
20260903191303 96 229 0.0 0.0 0.00 0.00 0.00 49 1015.0
20260903190804 96 227 0.0 0.0 0.00 0.00 0.00 48 1015.1
20260903190303 96 246 0.0 0.0 0.00 0.00 0.00 48 1015.1
20260903183804 95 251 0.0 0.0 0.00 0.00 0.00 50 1015.3
20260903183303 95 67 0.0 0.0 0.00 0.00 0.00 50 1015.4
20260903181804 95 222 0.0 0.0 0.00 0.00 0.00 54 1015.5
20260903181303 94 330 0.0 0.0 0.00 0.00 0.00 54 1015.6
20260903180803 94 187 0.0 0.0 0.00 0.00 0.00 56 1015.7
20260903180303 94 189 0.0 0.0 0.00 0.00 0.00 53 1015.7
20260903174803 93 203 0.0 0.0 0.00 0.00 0.00 55 1015.9
20260903174304 93 208 0.0 0.0 0.00 0.00 0.00 55 1015.9
20260903173804 92 243 0.0 0.0 0.00 0.00 0.00 59 1016.0
20260903173304 91 290 0.0 0.0 0.00 0.00 0.00 60 1016.1
20260903171804 92 267 0.0 0.0 0.00 0.00 0.00 58 1016.2
20260903171303 92 267 0.0 0.0 0.00 0.00 0.00 58 1016.4
20260903170803 91 267 0.0 0.0 0.00 0.00 0.00 62 1016.3
20260903170304 90 267 0.0 0.0 0.00 0.00 0.00 60 1016.5
20260903164804 90 110 0.0 0.0 0.00 0.00 0.00 62 1016.7
20260903164303 90 134 0.0 0.0 0.00 0.00 0.00 61 1016.7
20260903163804 90 136 0.0 0.0 0.00 0.00 0.00 62 1016.8
20260903163304 91 136 0.0 0.0 0.00 0.00 0.00 60 1016.8
20260903161804 92 160 0.0 0.0 0.00 0.00 0.00 58 1017.0
20260903161304 91 97 0.0 0.0 0.00 0.00 0.00 61 1017.0
20260903160803 90 88 0.0 0.0 0.00 0.00 0.00 62 1017.0
20260903154304 89 259 0.0 0.0 0.00 0.00 0.00 67 1017.2
20260903153803 89 258 0.0 0.0 0.00 0.00 0.00 67 1017.2
20260903153304 88 199 0.0 0.0 0.00 0.00 0.00 66 1017.1
20260903151803 87 196 0.0 0.0 0.00 0.00 0.00 70 1017.2
20260903151304 87 196 0.0 0.0 0.00 0.00 0.00 71 1017.2
20260903150803 86 189 0.0 0.0 0.00 0.00 0.00 70 1017.3
20260903144804 85 107 0.0 0.0 0.00 0.00 0.00 73 1017.2
20260903143804 84 88 0.0 0.0 0.00 0.00 0.00 77 1017.0
20260903141803 82 88 0.0 0.0 0.00 0.00 0.00 83 1017.2
20260903141304 81 88 0.0 0.0 0.00 0.00 0.00 84 1017.3
20260903140804 81 88 0.0 0.0 0.00 0.00 0.00 84 1017.2
20260903140303 80 88 0.0 0.0 0.00 0.00 0.00 85 1017.3
20260903134806 79 88 0.0 0.0 0.00 0.00 0.00 87 1017.4
20260903134303 78 88 0.0 0.0 0.00 0.00 0.00 88 1017.4
20260903133804 78 88 0.0 0.0 0.00 0.00 0.00 89 1017.4
20260903133304 77 88 0.0 0.0 0.00 0.00 0.00 89 1017.4
20260903131803 76 88 0.0 0.0 0.00 0.00 0.00 92 1017.4
20260903131304 75 88 0.0 0.0 0.00 0.00 0.00 92 1017.4
20260903130803 75 88 0.0 0.0 0.00 0.00 0.00 93 1017.4
20260903130305 75 88 0.0 0.0 0.00 0.00 0.00 93 1017.4
20260903124304 73 88 0.0 0.0 0.00 0.00 0.00 94 1017.6
20260903123804 73 88 0.0 0.0 0.00 0.00 0.00 94 1017.5
20260903123303 72 88 0.0 0.0 0.00 0.00 0.00 94 1017.5
20260903121804 72 88 0.0 0.0 0.00 0.00 0.00 94 1017.5
20260903121304 71 88 0.0 0.0 0.00 0.00 0.00 94 1017.4
20260903120804 71 88 0.0 0.0 0.00 0.00 0.00 94 1017.4
20260903120304 71 88 0.0 0.0 0.00 0.00 0.00 94 1017.4
20260903114804 71 88 0.0 0.0 0.00 0.00 0.00 94 1017.3
20260903114304 71 88 0.0 0.0 0.00 0.00 0.00 94 1017.3
20260903113803 71 88 0.0 0.0 0.00 0.00 0.00 94 1017.1
20260903113304 71 88 0.0 0.0 0.00 0.00 0.00 94 1017.1
20260903111304 71 88 0.0 0.0 0.00 0.00 0.00 94 1016.9
20260903110804 71 88 0.0 0.0 0.00 0.00 0.00 94 1016.8
20260903110304 71 88 0.0 0.0 0.00 0.00 0.00 94 1016.7
20260903104806 71 88 0.0 0.0 0.00 0.00 0.00 94 1016.6
20260903104304 71 88 0.0 0.0 0.00 0.00 0.00 94 1016.6
20260903103803 71 88 0.0 0.0 0.00 0.00 0.00 94 1016.6
20260903103304 71 88 0.0 0.0 0.00 0.00 0.00 94 1016.5
20260903101804 71 88 0.0 0.0 0.00 0.00 0.00 93 1016.5
20260903100804 71 88 0.0 0.0 0.00 0.00 0.00 94 1016.3
20260903100303 71 88 0.0 0.0 0.00 0.00 0.00 93 1016.4
20260903094804 72 88 0.0 0.0 0.00 0.00 0.00 93 1016.5
20260903094303 72 87 0.0 0.0 0.00 0.00 0.00 93 1016.4
20260903093804 72 79 0.0 0.0 0.00 0.00 0.00 93 1016.3
20260903093304 72 79 0.0 0.0 0.00 0.00 0.00 93 1016.5
20260903091804 72 79 0.0 0.0 0.00 0.00 0.00 93 1016.3
20260903091304 72 79 0.0 0.0 0.00 0.00 0.00 93 1016.4
20260903090804 72 79 0.0 0.0 0.00 0.00 0.00 93 1016.3
20260903084804 72 79 0.0 0.0 0.00 0.00 0.00 93 1016.1
20260903084304 72 79 0.0 0.0 0.00 0.00 0.00 93 1016.2
20260903083805 72 79 0.0 0.0 0.00 0.00 0.00 93 1016.2
20260903083304 72 79 0.0 0.0 0.00 0.00 0.00 93 1016.3
20260903081804 73 79 0.0 0.0 0.00 0.00 0.00 92 1016.4
20260903080804 73 79 0.0 0.0 0.00 0.00 0.00 92 1016.4
20260903080304 73 79 0.0 0.0 0.00 0.00 0.00 92 1016.3
20260903074804 73 79 0.0 0.0 0.00 0.00 0.00 92 1016.3
20260903074304 73 79 0.0 0.0 0.00 0.00 0.00 92 1016.3
20260903073804 73 79 0.0 0.0 0.00 0.00 0.00 92 1016.3
20260903071304 73 79 0.0 0.0 0.00 0.00 0.00 92 1016.2
20260903070804 73 79 0.0 0.0 0.00 0.00 0.00 92 1016.2
20260903064804 73 79 0.0 0.0 0.00 0.00 0.00 92 1016.3
20260903064304 74 79 0.0 0.0 0.00 0.00 0.00 92 1016.2
20260903063805 74 79 0.0 0.0 0.00 0.00 0.00 91 1016.3
20260903063305 74 79 0.0 0.0 0.00 0.00 0.00 91 1016.4
20260903061804 74 79 0.0 0.0 0.00 0.00 0.00 91 1016.3
20260903061304 74 79 0.0 0.0 0.00 0.00 0.00 91 1016.3
20260903060804 74 79 0.0 0.0 0.00 0.00 0.00 91 1016.4
20260903060304 74 79 0.0 0.0 0.00 0.00 0.00 91 1016.4
20260903054804 74 79 0.0 0.0 0.00 0.00 0.00 91 1016.3
20260903054304 74 79 0.0 0.0 0.00 0.00 0.00 90 1016.3
20260903053805 74 79 0.0 0.0 0.00 0.00 0.00 90 1016.4
20260903053304 75 79 0.0 0.0 0.00 0.00 0.00 90 1016.3
20260903051804 75 69 0.0 0.0 0.00 0.00 0.00 90 1016.5
20260903051304 75 69 0.0 0.0 0.00 0.00 0.00 90 1016.5
20260903050804 75 69 0.0 0.0 0.00 0.00 0.00 89 1016.5
20260903050305 75 69 0.0 0.0 0.00 0.00 0.00 89 1016.5
20260903044804 75 61 0.0 0.0 0.00 0.00 0.00 88 1016.5
20260903044307 76 57 0.0 0.0 0.00 0.00 0.00 88 1016.4
20260903043806 76 53 0.0 0.0 0.00 0.00 0.00 88 1016.4
20260903043304 76 53 0.0 0.0 0.00 0.00 0.00 88 1016.4
20260903041804 76 48 0.0 0.0 0.00 0.00 0.00 88 1016.4
20260903041305 76 21 0.0 0.0 0.00 0.00 0.00 88 1016.5
20260903040822 76 21 0.0 0.0 0.00 0.00 0.00 88 1016.5
20260903040305 76 21 0.0 0.0 0.00 0.00 0.00 87 1016.4
20260903034804 77 21 0.0 0.0 0.00 0.00 0.00 88 1016.5
20260903034305 77 21 0.0 0.0 0.00 0.00 0.00 87 1016.5
20260903033804 77 21 0.0 0.0 0.00 0.00 0.00 87 1016.5
20260903033304 77 21 0.0 0.0 0.00 0.00 0.00 86 1016.5
20260903031805 77 21 0.0 0.0 0.00 0.00 0.00 86 1016.5
20260903031304 77 21 0.0 0.0 0.00 0.00 0.00 86 1016.6
20260903030804 77 21 0.0 0.0 0.00 0.00 0.00 86 1016.6
20260903030304 78 21 0.0 0.0 0.00 0.00 0.00 86 1016.7
20260903024304 78 21 0.0 0.0 0.00 0.00 0.00 85 1016.6
20260903023304 79 21 0.0 0.0 0.00 0.00 0.00 84 1016.8
20260903021305 79 21 0.0 0.0 0.00 0.00 0.00 83 1016.7
20260903020304 80 21 0.0 0.0 0.00 0.00 0.00 82 1016.7
20260903014804 80 21 0.0 0.0 0.00 0.00 0.00 81 1016.4
20260903014305 80 21 0.0 0.0 0.00 0.00 0.00 80 1016.4
20260903013804 80 21 0.0 0.0 0.00 0.00 0.00 80 1016.4
20260903011805 82 21 0.0 0.0 0.00 0.00 0.00 79 1016.1
20260903011305 82 21 0.0 0.0 0.00 0.00 0.00 78 1016.2
20260903010305 82 21 0.0 0.0 0.00 0.00 0.00 75 1016.0
20260903004805 83 21 0.0 0.0 0.00 0.00 0.00 77 1015.8
20260903004305 83 21 0.0 0.0 0.00 0.00 0.00 76 1015.8
20260903003804 83 21 0.0 0.0 0.00 0.00 0.00 76 1015.6
20260903003305 84 21 0.0 0.0 0.00 0.00 0.00 75 1015.6
20260903001805 85 26 0.0 0.0 0.00 0.00 0.00 70 1015.4
20260903001304 86 24 0.0 0.0 0.00 0.00 0.00 69 1015.3
20260903000805 86 24 0.0 0.0 0.00 0.00 0.00 67 1015.3
20260903000304 87 24 0.0 0.0 0.00 0.00 0.00 67 1015.3
20260902234804 88 24 0.0 0.0 0.00 0.00 0.00 65 1015.2
20260902234304 88 24 0.0 0.0 0.00 0.00 0.00 65 1015.2
20260902233805 89 24 0.0 0.0 0.00 0.00 0.00 63 1015.2
20260902230804 91 24 0.0 0.0 0.00 0.00 0.00 58 1015.2
20260902224805 91 24 0.0 0.0 0.00 0.00 0.00 55 1015.4
20260902224305 91 24 0.0 0.0 0.00 0.00 0.00 54 1015.5
20260902223805 92 24 0.0 0.0 0.00 0.00 0.00 55 1015.5
20260902223305 92 24 0.0 0.0 0.00 0.00 0.00 52 1015.5